Johnstown, NE

9:48 AM CST on February 27, 2017 (GMT -0600)
Ainsworth Municipal

Weather History for KANW - January, 2012

Change the Weather History Date:

Friday, January 6, 2012

  Actual Average Record
Temperature  
Mean Temperature 39 °F -  
Max Temperature 46 °F 34 °F 59 °F (2006)
Min Temperature 32 °F 13 °F -9 °F (2005)
Degree Days  
Heating Degree Days 26    
Moisture  
Dew Point 18 °F    
Average Humidity 48    
Maximum Humidity 69    
Minimum Humidity 22    
Precipitation  
Precipitation 0.00 in - - ()
Sea Level Pressure  
Sea Level Pressure 29.94 in    
Wind  
Wind Speed 11 mph (NW)    
Max Wind Speed 26 mph    
Max Gust Speed 33 mph    
Visibility 10 miles    
Events      
Averages and records for this station are not official NWS values.
T = Trace of Precipitation, MM = Missing Value Source: NWS Daily Summary

Daily Weather History Graph

Daily Weather History Graph

Search for Another Location

Airport or City:

Trip Planner

Search our weather history database for the weather conditions in past years. The results will help you decide how hot, cold, wet, or windy it might be!

Date:

Astronomy

Jan. 06, 2012 Rise Set
Actual Time 8:09 AM CST 5:21 PM CST
Civil Twilight 7:38 AM CST 5:53 PM CST
Nautical Twilight 7:02 AM CST 6:28 PM CST
Astronomical Twilight 6:28 AM CST 7:02 PM CST
Moon 3:13 PM CST (1/6) 5:52 AM CST (1/6)
Length of Visible Light 10h 15m
Length of Day
9h 11m
Waxing Gibbous, 93% of the Moon is Illuminated
Jan 6
Waxing Gibbous
Jan 9
Full
Jan 16
Last Quarter
Jan 23
New
Jan 30
First Quarter

Hourly Weather History & Observations

Time (CST) Temp. Windchill Dew Point Humidity Pressure Visibility Wind Dir Wind Speed Gust Speed Precip Events Conditions
12:15 AM 32.0 °F 27.5 °F 23.0 °F 69% 29.76 in 10.0 mi West 4.6 mph - N/A   Clear
12:35 AM 35.6 °F 29.9 °F 23.0 °F 60% 29.76 in 10.0 mi WNW 6.9 mph - N/A   Clear
12:55 AM 33.8 °F 27.0 °F 23.0 °F 65% 29.77 in 10.0 mi WNW 8.1 mph - N/A   Clear
1:15 AM 33.8 °F 26.4 °F 23.0 °F 65% 29.77 in 10.0 mi WNW 9.2 mph - N/A   Clear
1:35 AM 37.4 °F 28.9 °F 24.8 °F 60% 29.80 in 10.0 mi NNW 13.8 mph 19.6 mph N/A   Clear
1:55 AM 33.8 °F 27.0 °F 23.0 °F 65% 29.81 in 10.0 mi North 8.1 mph - N/A   Clear
2:15 AM 32.0 °F 23.6 °F 23.0 °F 69% 29.81 in 10.0 mi North 10.4 mph - N/A   Clear
2:35 AM 32.0 °F 23.6 °F 23.0 °F 69% 29.83 in 10.0 mi North 10.4 mph - N/A   Clear
2:55 AM 35.6 °F 28.0 °F 23.0 °F 60% 29.84 in 10.0 mi NNW 10.4 mph - N/A   Clear
3:15 AM 32.0 °F 26.4 °F 21.2 °F 64% 29.85 in 10.0 mi NW 5.8 mph - N/A   Clear
3:35 AM 32.0 °F 26.4 °F 23.0 °F 69% 29.85 in 10.0 mi WNW 5.8 mph - N/A   Clear
3:55 AM 32.0 °F 24.8 °F 21.2 °F 64% 29.85 in 10.0 mi WNW 8.1 mph - N/A   Clear
4:15 AM 33.8 °F 27.0 °F 23.0 °F 65% 29.87 in 10.0 mi NW 8.1 mph - N/A   Clear
4:35 AM 32.0 °F 24.2 °F 23.0 °F 69% 29.87 in 10.0 mi WNW 9.2 mph - N/A   Clear
4:55 AM 33.8 °F 25.8 °F 23.0 °F 65% 29.88 in 10.0 mi NW 10.4 mph - N/A   Clear
5:15 AM 33.8 °F 27.0 °F 23.0 °F 65% 29.89 in 10.0 mi WNW 8.1 mph - N/A   Clear
5:35 AM 35.6 °F 28.0 °F 23.0 °F 60% 29.89 in 10.0 mi NW 10.4 mph - N/A   Clear
5:55 AM 33.8 °F 27.0 °F 23.0 °F 65% 29.90 in 10.0 mi WNW 8.1 mph - N/A   Clear
6:15 AM 33.8 °F 27.0 °F 23.0 °F 65% 29.91 in 10.0 mi NW 8.1 mph - N/A   Clear
6:35 AM 35.6 °F 28.6 °F 23.0 °F 60% 29.92 in 10.0 mi NW 9.2 mph - N/A   Clear
6:55 AM 35.6 °F 28.0 °F 23.0 °F 60% 29.92 in 10.0 mi NW 10.4 mph - N/A   Clear
7:15 AM 35.6 °F 28.6 °F 23.0 °F 60% 29.93 in 10.0 mi NW 9.2 mph - N/A   Clear
7:35 AM 33.8 °F 25.3 °F 23.0 °F 65% 29.94 in 10.0 mi NW 11.5 mph - N/A   Clear
7:55 AM 33.8 °F 25.8 °F 21.2 °F 60% 29.95 in 10.0 mi WNW 10.4 mph - N/A   Clear
8:15 AM 33.8 °F 25.3 °F 21.2 °F 60% 29.95 in 10.0 mi NW 11.5 mph - N/A   Clear
8:35 AM 35.6 °F 27.1 °F 21.2 °F 56% 29.96 in 10.0 mi NW 12.7 mph 19.6 mph N/A   Clear
8:55 AM 35.6 °F 27.1 °F 19.4 °F 52% 29.98 in 10.0 mi NW 12.7 mph - N/A   Clear
9:15 AM 35.6 °F 26.6 °F 19.4 °F 52% 29.99 in 10.0 mi NW 13.8 mph - N/A   Clear
9:35 AM 37.4 °F 28.9 °F 19.4 °F 48% 29.99 in 10.0 mi NW 13.8 mph - N/A   Scattered Clouds
9:55 AM 39.2 °F 30.8 °F 17.6 °F 42% 30.01 in 10.0 mi NW 15.0 mph 23.0 mph N/A   Overcast
10:15 AM 41.0 °F 32.2 °F 17.6 °F 39% 30.01 in 10.0 mi NW 18.4 mph - N/A   Overcast
10:35 AM 42.8 °F 34.8 °F 17.6 °F 36% 30.02 in 10.0 mi NW 17.3 mph 21.9 mph N/A   Overcast
10:55 AM 42.8 °F 34.8 °F 17.6 °F 36% 30.03 in 10.0 mi NNW 17.3 mph 25.3 mph N/A   Overcast
11:15 AM 42.8 °F 33.5 °F 15.8 °F 34% 30.03 in 10.0 mi NNW 23.0 mph 26.5 mph N/A   Overcast
11:35 AM 42.8 °F 34.3 °F 15.8 °F 34% 30.03 in 10.0 mi NW 19.6 mph 25.3 mph N/A   Overcast
11:55 AM 42.8 °F 34.3 °F 15.8 °F 34% 30.03 in 10.0 mi NNW 19.6 mph - N/A   Overcast
12:15 PM 42.8 °F 35.1 °F 15.8 °F 34% 30.02 in 10.0 mi NW 16.1 mph 21.9 mph N/A   Overcast
12:35 PM 42.8 °F 35.4 °F 15.8 °F 34% 30.01 in 10.0 mi NW 15.0 mph 24.2 mph N/A   Overcast
12:55 PM 42.8 °F 34.3 °F 15.8 °F 34% 30.01 in 10.0 mi NW 19.6 mph - N/A   Overcast
1:15 PM 42.8 °F 34.5 °F 15.8 °F 34% 30.01 in 10.0 mi NW 18.4 mph 23.0 mph N/A   Overcast
1:35 PM 44.6 °F 37.8 °F 15.8 °F 31% 29.99 in 10.0 mi NW 15.0 mph 20.7 mph N/A   Scattered Clouds
1:55 PM 44.6 °F 35.9 °F 12.2 °F 27% 29.99 in 10.0 mi NW 23.0 mph 31.1 mph N/A   Clear
2:15 PM 44.6 °F 36.4 °F 12.2 °F 27% 29.99 in 10.0 mi NW 20.7 mph 27.6 mph N/A   Clear
2:35 PM 46.4 °F 37.7 °F 12.2 °F 25% 29.99 in 10.0 mi NW 26.5 mph 33.4 mph N/A   Clear
2:55 PM 46.4 °F 38.3 °F 8.6 °F 22% 29.99 in 10.0 mi NW 23.0 mph 31.1 mph N/A   Clear
3:15 PM 44.6 °F 35.9 °F 8.6 °F 23% 30.00 in 10.0 mi NNW 23.0 mph 33.4 mph N/A   Clear
3:35 PM 44.6 °F 36.6 °F 10.4 °F 25% 30.00 in 10.0 mi NW 19.6 mph 31.1 mph N/A   Clear
3:55 PM 44.6 °F 36.1 °F 10.4 °F 25% 30.01 in 10.0 mi NW 21.9 mph 29.9 mph N/A   Clear
4:15 PM 44.6 °F 36.1 °F 10.4 °F 25% 30.01 in 10.0 mi NW 21.9 mph 29.9 mph N/A   Clear
4:35 PM 42.8 °F 33.8 °F 12.2 °F 29% 30.03 in 10.0 mi NW 21.9 mph 27.6 mph N/A   Clear
4:55 PM 42.8 °F 35.1 °F 12.2 °F 29% 30.03 in 10.0 mi NW 16.1 mph 25.3 mph N/A   Clear
5:15 PM 41.0 °F 33.9 °F 12.2 °F 31% 30.04 in 10.0 mi NW 12.7 mph 20.7 mph N/A   Clear
5:35 PM 41.0 °F 33.5 °F 12.2 °F 31% 30.04 in 10.0 mi NW 13.8 mph - N/A   Clear
5:55 PM 39.2 °F 31.2 °F 12.2 °F 33% 30.05 in 10.0 mi NW 13.8 mph - N/A   Clear
6:15 PM 37.4 °F 32.1 °F 12.2 °F 36% 30.05 in 10.0 mi WNW 6.9 mph - N/A   Clear
6:35 PM 33.8 °F 27.0 °F 12.2 °F 41% 30.06 in 10.0 mi NW 8.1 mph - N/A   Clear
6:55 PM 32.0 °F 24.8 °F 12.2 °F 44% 30.07 in 10.0 mi NW 8.1 mph - N/A   Clear
7:15 PM 32.0 °F 25.6 °F 14.0 °F 48% 30.07 in 10.0 mi NW 6.9 mph - N/A   Clear
7:35 PM 32.0 °F 25.6 °F 14.0 °F 48% 30.07 in 10.0 mi WNW 6.9 mph - N/A   Clear
7:55 PM 30.2 °F 22.6 °F 14.0 °F 51% 30.08 in 10.0 mi WNW 8.1 mph - N/A   Clear
8:15 PM 30.2 °F 22.6 °F 14.0 °F 51% 30.08 in 10.0 mi WNW 8.1 mph - N/A   Clear
8:35 PM 30.2 °F 23.4 °F 14.0 °F 51% 30.08 in 10.0 mi WNW 6.9 mph - N/A   Clear
8:55 PM 30.2 °F 23.4 °F 14.0 °F 51% 30.08 in 10.0 mi WNW 6.9 mph - N/A   Clear
9:15 PM 28.4 °F 21.2 °F 14.0 °F 55% 30.08 in 10.0 mi West 6.9 mph - N/A   Clear
9:35 PM 28.4 °F 22.2 °F 12.2 °F 51% 30.08 in 10.0 mi West 5.8 mph - N/A   Clear
9:55 PM 26.6 °F 19.1 °F 14.0 °F 59% 30.08 in 10.0 mi West 6.9 mph - N/A   Clear
10:15 PM 28.4 °F 21.2 °F 14.0 °F 55% 30.08 in 10.0 mi West 6.9 mph - N/A   Clear
10:35 PM 26.6 °F 21.2 °F 12.2 °F 55% 30.08 in 10.0 mi West 4.6 mph - N/A   Clear
10:55 PM 26.6 °F 20.0 °F 14.0 °F 59% 30.08 in 10.0 mi West 5.8 mph - N/A   Clear
11:15 PM 26.6 °F 20.0 °F 14.0 °F 59% 30.08 in 10.0 mi West 5.8 mph - N/A   Clear
11:35 PM 26.6 °F 19.1 °F 14.0 °F 59% 30.08 in 10.0 mi West 6.9 mph - N/A   Clear
11:55 PM 23.0 °F 14.7 °F 12.2 °F 63% 30.08 in 10.0 mi West 6.9 mph - N/A   Clear